Date String (YYYY-MM-DD hh:mm:ss) UTC,Instrument flags,Ambient pressure (hPa),Sample flow (lpm),Bypass flow (lpm),Sample temperature (°C),Ambient temperature (°C),ASC tube jacket temperature (°C),LED temperature (°C),Box temperature (°C),Sample RH (%),Span deviation,Mass concentration (μg/m³),Mass concentration (μg/m³),Mass concentration (μg/m³)
DateTimeUTC,F1_M11,P_M11,Q1_M11,Q2_M11,T1_M11,T2_M11,T3_M11,T4_M11,T5_M11,U1_M11,ZSPAN_M11,X0_M11,X2_M11,X1_M11
2023-01-04 20:00:00,,0823.2,5.00,0.00,22.5,21.5,00.0,31.2,24.3,09.1,-001.1,0019.73,0014.58,0013.94
2023-01-04 20:01:00,,0823.1,5.00,0.00,22.6,21.5,00.0,31.2,24.3,08.7,-001.2,0019.52,0014.40,0013.80
2023-01-04 20:02:00,,0823.2,5.01,0.00,22.6,21.5,00.0,31.3,24.4,08.6,-001.4,0019.30,0014.21,0013.64
2023-01-04 20:03:00,,0823.2,5.00,0.00,22.6,21.6,00.0,31.3,24.4,08.6,-001.4,0018.84,0013.80,0013.25
2023-01-04 20:04:00,,0823.2,4.99,0.00,22.6,21.6,00.0,31.3,24.5,09.0,-001.6,0018.27,0013.32,0012.80
2023-01-04 20:05:00,,0823.3,4.99,0.00,22.7,21.6,00.0,31.3,24.5,09.1,-001.6,0018.03,0013.19,0012.69
2023-01-04 20:06:00,,0823.3,5.00,0.00,22.7,21.6,00.0,31.3,24.5,08.9,-001.8,0018.30,0013.25,0012.75
2023-01-04 20:07:00,,0823.3,5.01,0.00,22.7,21.7,00.0,31.4,24.5,09.4,-001.6,0018.85,0013.44,0012.91
2023-01-04 20:08:00,,0823.2,5.00,0.00,22.7,21.7,00.0,31.4,24.5,09.3,-001.3,0018.98,0013.59,0013.07
2023-01-04 20:09:00,,0823.1,5.01,0.00,22.7,21.7,00.0,31.4,24.5,09.3,-001.2,0019.01,0013.74,0013.23
2023-01-04 20:10:00,,0823.1,5.00,0.00,22.8,21.7,00.0,31.4,24.6,09.5,-001.4,0019.10,0014.00,0013.46
2023-01-04 20:11:00,,0823.2,5.01,0.00,22.8,21.7,00.0,31.4,24.6,10.1,-001.5,0019.42,0014.35,0013.79
2023-01-04 20:12:00,,0823.2,4.99,0.00,22.8,21.7,00.0,31.5,24.6,09.9,-001.1,0020.27,0014.82,0014.20
2023-01-04 20:13:00,,0823.2,4.99,0.00,22.8,21.7,00.0,31.5,24.6,09.4,-001.0,0021.43,0015.23,0014.57
2023-01-04 20:14:00,,0823.2,5.00,0.00,22.8,21.7,00.0,31.5,24.7,08.9,-001.0,0021.63,0015.39,0014.72
2023-01-04 20:15:00,,0823.2,5.00,0.00,22.8,21.8,00.0,31.5,24.7,08.6,-000.9,0021.72,0015.44,0014.74
2023-01-04 20:16:00,,0823.2,5.00,0.00,22.9,21.8,00.0,31.5,24.7,08.2,-000.9,0021.86,0015.21,0014.52
2023-01-04 20:17:00,,0823.1,5.00,0.00,22.9,21.8,00.0,31.5,24.8,08.1,-000.8,0021.37,0014.94,0014.26
2023-01-04 20:18:00,,0823.2,5.03,0.00,22.9,21.8,00.0,31.6,24.8,08.3,-000.5,0021.11,0014.70,0014.04
2023-01-04 20:19:00,,0823.2,4.99,0.00,22.9,21.8,00.0,31.6,24.8,08.4,-000.6,0021.22,0014.48,0013.83
2023-01-04 20:20:00,,0823.2,5.00,0.00,22.8,21.7,00.0,31.6,24.7,08.4,-000.5,0020.68,0014.25,0013.62
2023-01-04 20:21:00,,0823.2,5.01,0.00,22.8,21.7,00.0,31.6,24.7,08.7,-000.2,0020.41,0013.97,0013.36
2023-01-04 20:22:00,,0823.1,4.99,0.00,22.8,21.7,00.0,31.6,24.7,08.8,0000.3,0020.04,0013.66,0013.06
2023-01-04 20:23:00,,0823.1,4.99,0.00,22.9,21.7,00.0,31.6,24.7,08.7,-000.1,0019.42,0013.35,0012.78
2023-01-04 20:24:00,,0823.2,5.00,0.00,22.9,21.7,00.0,31.6,24.8,08.7,0000.1,0018.56,0013.20,0012.62
2023-01-04 20:25:00,,0823.3,5.00,0.00,22.9,21.7,00.0,31.6,24.8,08.8,0000.1,0018.74,0013.24,0012.68
2023-01-04 20:26:00,,0823.4,4.99,0.00,22.9,21.7,00.0,31.6,24.7,09.0,0000.2,0019.07,0013.47,0012.93
2023-01-04 20:27:00,,0823.3,5.00,0.00,22.9,21.7,00.0,31.6,24.6,08.9,-000.4,0019.19,0013.83,0013.29
2023-01-04 20:28:00,,0823.4,5.00,0.00,22.9,21.7,00.0,31.6,24.6,08.8,-000.4,0019.47,0014.23,0013.69
2023-01-04 20:29:00,,0823.4,5.00,0.00,22.9,21.8,00.0,31.6,24.7,09.5,-000.2,0019.76,0014.63,0014.10
2023-01-04 20:30:00,,0823.4,5.00,0.00,22.9,21.8,00.0,31.7,24.8,09.8,-001.1,0019.86,0015.11,0014.57
2023-01-04 20:31:00,,0823.4,5.00,0.00,22.9,21.9,00.0,31.7,24.8,09.8,-001.0,0020.59,0015.61,0015.04
2023-01-04 20:32:00,,0823.3,5.00,0.00,23.0,21.9,00.0,31.7,24.8,09.9,-001.3,0021.03,0016.06,0015.48
2023-01-04 20:33:00,,0823.4,4.99,0.00,23.0,21.9,00.0,31.7,24.8,09.9,-001.6,0021.66,0016.40,0015.83
2023-01-04 20:34:00,,0823.4,4.99,0.00,23.0,22.0,00.0,31.7,24.8,09.8,-001.5,0022.48,0016.73,0016.17
2023-01-04 20:35:00,,0823.3,5.00,0.00,23.0,22.0,00.0,31.7,24.8,09.6,-001.5,0022.81,0017.01,0016.49
2023-01-04 20:36:00,,0823.2,5.00,0.00,23.0,22.0,00.0,31.7,24.9,09.2,-001.3,0023.12,0017.16,0016.63
2023-01-04 20:37:00,,0823.1,5.01,0.00,23.1,22.0,00.0,31.8,24.9,09.0,-001.3,0023.28,0017.18,0016.64
2023-01-04 20:38:00,,0823.1,5.00,0.00,23.1,21.9,00.0,31.8,24.9,08.3,-001.3,0023.13,0017.03,0016.48
2023-01-04 20:39:00,,0823.2,5.00,0.00,23.1,21.9,00.0,31.8,24.9,08.6,-001.3,0022.87,0016.79,0016.23
2023-01-04 20:40:00,,0823.2,5.00,0.00,23.1,21.9,00.0,31.8,24.9,08.5,-001.4,0022.62,0016.57,0016.02
2023-01-04 20:41:00,,0823.1,4.99,0.00,23.1,21.9,00.0,31.8,24.9,08.2,-000.9,0022.03,0015.98,0015.43
2023-01-04 20:42:00,,0823.1,5.00,0.00,23.1,21.9,00.0,31.8,24.9,08.6,-001.1,0021.40,0015.43,0014.89
2023-01-04 20:43:00,,0823.1,5.00,0.00,23.1,22.0,00.0,31.8,24.9,08.5,-001.0,0020.96,0014.85,0014.32
2023-01-04 20:44:00,,0823.2,5.01,0.00,23.1,22.0,00.0,31.8,24.9,08.7,-001.0,0020.58,0014.44,0013.91
2023-01-04 20:45:00,,0823.1,5.00,0.00,23.1,22.0,00.0,31.8,24.9,08.7,-000.8,0019.90,0014.09,0013.55
2023-01-04 20:46:00,,0823.1,5.00,0.00,23.2,22.0,00.0,31.9,24.9,08.6,-000.7,0019.62,0013.75,0013.20
2023-01-04 20:47:00,,0823.1,5.00,0.00,23.2,22.0,00.0,31.9,24.9,08.6,-000.7,0019.14,0013.50,0012.98
2023-01-04 20:48:00,,0823.0,5.00,0.00,23.2,22.0,00.0,31.9,24.9,08.6,-000.8,0018.75,0013.34,0012.84
2023-01-04 20:49:00,,0823.0,5.00,0.00,23.2,22.0,00.0,31.9,25.0,08.2,-000.9,0018.60,0013.19,0012.70
2023-01-04 20:50:00,,0823.0,4.98,0.00,23.2,21.9,00.0,31.9,25.0,07.7,-000.9,0018.26,0012.86,0012.39
2023-01-04 20:51:00,,0822.9,5.00,0.00,23.1,21.8,00.0,31.9,24.9,07.4,-001.2,0017.91,0012.35,0011.91
2023-01-04 20:52:00,,0823.0,5.00,0.00,23.1,21.8,00.0,31.9,24.9,07.9,-001.5,0017.86,0012.12,0011.68
2023-01-04 20:53:00,,0823.0,5.01,0.00,23.1,21.9,00.0,31.9,24.8,08.1,-001.5,0017.98,0011.93,0011.47
2023-01-04 20:54:00,,0822.9,5.00,0.00,23.1,21.9,00.0,31.9,24.9,07.8,-001.3,0017.52,0011.66,0011.23
2023-01-04 20:55:00,,0823.0,4.99,0.00,23.1,21.9,00.0,31.9,24.9,06.6,-000.7,0016.21,0010.84,0010.41
2023-01-04 20:56:00,,0823.0,4.98,0.00,23.1,22.0,00.0,31.9,25.0,07.0,0000.0,0015.51,0010.06,0009.65
2023-01-04 20:57:00,,0822.9,5.02,0.00,23.1,22.0,00.0,31.9,25.0,07.6,0000.0,0014.90,0009.53,0009.08
2023-01-04 20:58:00,,0822.9,5.00,0.00,23.1,22.0,00.0,31.9,25.0,07.8,0000.0,0014.47,0009.11,0008.66
2023-01-04 20:59:00,,0823.0,5.00,0.00,23.1,22.0,00.0,31.9,25.0,07.8,0000.0,0014.47,0008.67,0008.24
